�������l�o���
Date,Time,MP-1(��Sv/h),MP-2(��Sv/h),MP-3(��Sv/h),MP-4(��Sv/h),MP-5(��Sv/h),MP-6(��Sv/h),MP-7(��Sv/h),MP-8(��Sv/h),����,����(m/s),���J
2018/04/14,00:00,0.878,1.471,0.914,1.714,1.179,0.484,0.857,0.823,�k�k��,0.8,��
2018/04/14,00:10,0.877,1.470,0.915,1.711,1.180,0.485,0.860,0.823,�k�k��,2.3,��
2018/04/14,00:20,0.879,1.473,0.913,1.714,1.178,0.484,0.860,0.822,�k�k��,3.7,��
2018/04/14,00:30,0.878,1.471,0.915,1.712,1.181,0.483,0.859,0.822,�k,4.1,��
2018/04/14,00:40,0.877,1.473,0.914,1.713,1.180,0.484,0.857,0.821,�k��,3.9,��
2018/04/14,00:50,0.878,1.472,0.914,1.712,1.182,0.484,0.858,0.822,�k��,3.6,��
2018/04/14,01:00,0.875,1.471,0.914,1.712,1.179,0.483,0.857,0.823,�k,4.6,��
2018/04/14,01:10,0.876,1.469,0.914,1.713,1.180,0.485,0.858,0.821,�k,3.8,��
2018/04/14,01:20,0.876,1.473,0.914,1.711,1.176,0.483,0.857,0.822,�k,3.4,��
2018/04/14,01:30,0.874,1.470,0.913,1.711,1.179,0.484,0.858,0.822,�k,3.3,��
2018/04/14,01:40,0.876,1.470,0.911,1.708,1.178,0.485,0.856,0.821,�k,4.4,��
2018/04/14,01:50,0.878,1.469,0.914,1.710,1.180,0.483,0.856,0.822,�k,5.0,��
2018/04/14,02:00,0.877,1.471,0.915,1.711,1.178,0.485,0.857,0.822,�k,4.8,��
2018/04/14,02:10,0.876,1.471,0.914,1.711,1.179,0.483,0.858,0.821,�k,4.4,��
2018/04/14,02:20,0.878,1.471,0.913,1.714,1.178,0.481,0.858,0.821,�k,3.9,��
2018/04/14,02:30,0.877,1.470,0.912,1.711,1.178,0.482,0.857,0.822,�k,3.4,��
2018/04/14,02:40,0.875,1.472,0.913,1.715,1.177,0.483,0.860,0.821,�k�k��,3.5,��
2018/04/14,02:50,0.876,1.469,0.909,1.709,1.178,0.484,0.857,0.822,�k�k��,2.6,��
2018/04/14,03:00,0.876,1.470,0.911,1.709,1.178,0.483,0.857,0.821,�k�k��,2.9,��
2018/04/14,03:10,0.876,1.469,0.912,1.710,1.177,0.483,0.857,0.823,�k�k��,2.3,��
2018/04/14,03:20,0.876,1.466,0.913,1.711,1.178,0.483,0.858,0.822,�k�k��,2.3,��
2018/04/14,03:30,0.877,1.469,0.911,1.710,1.177,0.484,0.857,0.824,�k��,1.7,��
2018/04/14,03:40,0.876,1.468,0.909,1.711,1.178,0.483,0.857,0.821,�k��,1.7,��
2018/04/14,03:50,0.876,1.470,0.912,1.708,1.176,0.485,0.859,0.821,�k��,1.7,��
2018/04/14,04:00,0.875,1.471,0.911,1.709,1.177,0.483,0.857,0.821,�k,2.0,��
2018/04/14,04:10,0.876,1.474,0.912,1.711,1.176,0.483,0.856,0.823,�k,1.9,��
2018/04/14,04:20,0.875,1.470,0.911,1.707,1.176,0.483,0.856,0.821,�k,1.2,��
2018/04/14,04:30,0.875,1.470,0.912,1.708,1.179,0.483,0.858,0.819,�k,1.7,��
2018/04/14,04:40,0.876,1.469,0.910,1.707,1.178,0.483,0.856,0.822,�k�k��,1.9,��
2018/04/14,04:50,0.874,1.469,0.910,1.712,1.176,0.484,0.857,0.822,�k��,1.5,��
2018/04/14,05:00,0.875,1.467,0.911,1.709,1.177,0.484,0.857,0.821,�k�k��,1.4,��
2018/04/14,05:10,0.876,1.470,0.911,1.709,1.178,0.482,0.857,0.821,�k�k��,1.2,��
2018/04/14,05:20,0.874,1.472,0.912,1.708,1.177,0.483,0.856,0.821,�k�k��,1.9,��
2018/04/14,05:30,0.876,1.468,0.912,1.709,1.177,0.483,0.856,0.822,�k,1.2,��
2018/04/14,05:40,0.874,1.471,0.910,1.707,1.179,0.483,0.857,0.821,�k�k��,2.0,��
2018/04/14,05:50,0.875,1.469,0.913,1.707,1.177,0.482,0.858,0.821,�k�k��,1.5,��
2018/04/14,06:00,0.873,1.469,0.911,1.708,1.176,0.483,0.857,0.819,�k,1.7,��
2018/04/14,06:10,0.877,1.471,0.912,1.709,1.177,0.483,0.857,0.822,�k,1.7,��
2018/04/14,06:20,0.877,1.468,0.913,1.710,1.179,0.484,0.859,0.822,�k,1.7,��
2018/04/14,06:30,0.875,1.471,0.912,1.709,1.178,0.484,0.858,0.823,�k,1.5,��
2018/04/14,06:40,0.878,1.470,0.911,1.710,1.177,0.483,0.858,0.823,�k�k��,1.7,��
2018/04/14,06:50,0.877,1.470,0.913,1.709,1.178,0.482,0.858,0.822,�k,1.5,��
2018/04/14,07:00,0.876,1.471,0.913,1.707,1.181,0.485,0.860,0.821,�k�k��,1.5,��
2018/04/14,07:10,0.875,1.474,0.912,1.711,1.181,0.484,0.861,0.823,�k,1.7,��
2018/04/14,07:20,0.880,1.474,0.915,1.707,1.180,0.486,0.859,0.823,�k�k��,0.9,��
2018/04/14,07:30,0.877,1.471,0.914,1.710,1.178,0.486,0.859,0.823,�k,1.4,��
2018/04/14,07:40,0.877,1.472,0.914,1.708,1.179,0.484,0.860,0.824,�k�k��,0.9,��
2018/04/14,07:50,0.879,1.471,0.914,1.706,1.179,0.484,0.862,0.823,��,1.5,��
2018/04/14,08:00,0.879,1.472,0.915,1.713,1.178,0.483,0.859,0.823,��,1.2,��
2018/04/14,08:10,0.879,1.470,0.916,1.709,1.180,0.483,0.859,0.822,��,1.4,��
2018/04/14,08:20,0.880,1.471,0.916,1.711,1.181,0.484,0.858,0.823,���k��,1.5,��
2018/04/14,08:30,0.879,1.469,0.915,1.711,1.180,0.483,0.859,0.822,�k��,1.5,��
2018/04/14,08:40,0.878,1.472,0.914,1.710,1.181,0.482,0.859,0.823,��,1.5,��
2018/04/14,08:50,0.879,1.471,0.916,1.713,1.182,0.485,0.858,0.822,��,2.0,��
2018/04/14,09:00,0.878,1.471,0.914,1.709,1.181,0.482,0.858,0.821,��,2.2,��
2018/04/14,09:10,0.881,1.471,0.917,1.712,1.181,0.483,0.858,0.820,��,2.9,��
2018/04/14,09:20,0.883,1.468,0.914,1.713,1.182,0.484,0.858,0.820,��,2.6,��
2018/04/14,09:30,0.881,1.470,0.918,1.710,1.181,0.484,0.857,0.819,��,3.1,��
2018/04/14,09:40,0.880,1.466,0.916,1.712,1.179,0.483,0.857,0.820,��,2.3,��
2018/04/14,09:50,0.881,1.472,0.914,1.711,1.179,0.484,0.856,0.820,���쓌,3.1,��
2018/04/14,10:00,0.881,1.470,0.917,1.709,1.178,0.483,0.856,0.820,���쓌,2.8,��
2018/04/14,10:10,0.880,1.470,0.917,1.712,1.180,0.483,0.857,0.822,��,2.6,��
2018/04/14,10:20,0.880,1.471,0.916,1.713,1.180,0.484,0.856,0.818,���쓌,3.3,��
2018/04/14,10:30,0.881,1.470,0.917,1.710,1.178,0.484,0.859,0.820,�쓌,3.9,��
2018/04/14,10:40,0.882,1.472,0.918,1.713,1.178,0.486,0.858,0.820,�쓌,2.9,��
2018/04/14,10:50,0.882,1.471,0.917,1.710,1.180,0.486,0.857,0.821,�쓌,3.6,��
2018/04/14,11:00,0.881,1.473,0.918,1.711,1.179,0.487,0.859,0.822,��쓌,4.6,��
2018/04/14,11:10,0.880,1.468,0.916,1.712,1.181,0.486,0.860,0.822,��쓌,6.2,��
2018/04/14,11:20,0.885,1.474,0.917,1.711,1.179,0.487,0.858,0.823,��쓌,4.6,��
2018/04/14,11:30,0.882,1.472,0.916,1.712,1.178,0.488,0.861,0.822,��쓌,6.4,��
2018/04/14,11:40,0.884,1.475,0.918,1.711,1.180,0.486,0.859,0.821,��쓌,6.5,��
2018/04/14,11:50,0.881,1.472,0.918,1.714,1.181,0.485,0.858,0.821,��,6.8,��
2018/04/14,12:00,0.881,1.470,0.917,1.713,1.177,0.485,0.858,0.821,��,7.8,��
2018/04/14,12:10,0.882,1.472,0.918,1.711,1.180,0.486,0.860,0.822,��쓌,7.3,��
2018/04/14,12:20,0.881,1.472,0.915,1.713,1.180,0.486,0.861,0.820,��,5.3,��
2018/04/14,12:30,0.881,1.471,0.917,1.713,1.181,0.486,0.860,0.822,��쓌,6.7,��
2018/04/14,12:40,0.883,1.470,0.918,1.712,1.183,0.486,0.858,0.821,��쓌,9.3,��
2018/04/14,12:50,0.882,1.469,0.915,1.712,1.178,0.487,0.860,0.822,��,7.7,��
2018/04/14,13:00,0.883,1.475,0.920,1.713,1.180,0.487,0.859,0.821,��,8.3,��
2018/04/14,13:10,0.880,1.474,0.920,1.713,1.182,0.487,0.859,0.821,��,6.5,��
2018/04/14,13:20,0.884,1.472,0.918,1.716,1.180,0.488,0.860,0.822,��,6.6,��
2018/04/14,13:30,0.884,1.471,0.920,1.712,1.180,0.487,0.859,0.822,��,6.2,��
2018/04/14,13:40,0.884,1.475,0.919,1.716,1.180,0.488,0.859,0.822,��,6.7,��
2018/04/14,13:50,0.884,1.476,0.920,1.714,1.179,0.487,0.860,0.822,��쓌,6.0,��
2018/04/14,14:00,0.884,1.471,0.920,1.718,1.183,0.488,0.860,0.823,��쓌,6.6,��
2018/04/14,14:10,0.884,1.472,0.918,1.716,1.181,0.489,0.862,0.822,��,7.4,��
2018/04/14,14:20,0.884,1.476,0.921,1.714,1.182,0.487,0.861,0.821,��,6.4,��
2018/04/14,14:30,0.885,1.471,0.921,1.714,1.182,0.489,0.862,0.823,��쓌,7.8,��
2018/04/14,14:40,0.884,1.473,0.920,1.714,1.178,0.487,0.861,0.823,��,6.7,��
2018/04/14,14:50,0.884,1.474,0.920,1.713,1.180,0.487,0.862,0.820,��,5.4,��
2018/04/14,15:00,0.884,1.476,0.921,1.714,1.180,0.489,0.860,0.822,��,5.4,��
2018/04/14,15:10,0.886,1.472,0.918,1.714,1.182,0.488,0.862,0.822,��,4.2,��
2018/04/14,15:20,0.886,1.473,0.919,1.716,1.182,0.490,0.860,0.825,��,3.4,��
2018/04/14,15:30,0.885,1.475,0.919,1.713,1.180,0.489,0.864,0.825,��,3.7,��
2018/04/14,15:40,0.885,1.475,0.922,1.715,1.181,0.489,0.860,0.826,��,4.2,��
2018/04/14,15:50,0.884,1.480,0.920,1.716,1.179,0.491,0.860,0.825,��,4.2,�L
2018/04/14,16:00,0.882,1.478,0.919,1.713,1.182,0.489,0.861,0.825,��쓌,4.9,�L
2018/04/14,16:10,0.884,1.476,0.919,1.714,1.181,0.490,0.861,0.824,��쓌,4.9,��
2018/04/14,16:20,0.885,1.478,0.917,1.713,1.180,0.490,0.861,0.824,��쓌,5.9,��
2018/04/14,16:30,0.883,1.477,0.921,1.716,1.182,0.489,0.860,0.826,��쓌,6.9,��
2018/04/14,16:40,0.881,1.478,0.920,1.713,1.182,0.491,0.862,0.825,��쓌,6.9,��
2018/04/14,16:50,0.886,1.479,0.918,1.714,1.181,0.490,0.860,0.825,��쓌,6.8,��
2018/04/14,17:00,0.885,1.478,0.917,1.715,1.181,0.489,0.861,0.824,��쓌,6.7,��
2018/04/14,17:10,0.883,1.477,0.919,1.717,1.180,0.491,0.864,0.826,��쓌,5.4,��
2018/04/14,17:20,0.885,1.478,0.922,1.714,1.181,0.489,0.861,0.827,��,8.4,��
2018/04/14,17:30,0.884,1.477,0.921,1.715,1.183,0.491,0.863,0.825,��,6.9,��
2018/04/14,17:40,0.883,1.479,0.919,1.716,1.183,0.491,0.862,0.827,��,7.8,��
2018/04/14,17:50,0.884,1.478,0.919,1.713,1.183,0.490,0.861,0.827,��,8.6,��
2018/04/14,18:00,0.885,1.481,0.920,1.715,1.181,0.491,0.863,0.827,��,7.3,�L
2018/04/14,18:10,0.886,1.479,0.919,1.714,1.183,0.490,0.863,0.826,��,9.5,��
2018/04/14,18:20,0.886,1.478,0.920,1.714,1.181,0.490,0.861,0.824,��,10.2,�L
2018/04/14,18:30,0.885,1.480,0.920,1.715,1.181,0.491,0.863,0.825,��,10.0,�L
2018/04/14,18:40,0.887,1.480,0.920,1.713,1.184,0.492,0.862,0.825,��,10.7,�L
2018/04/14,18:50,0.885,1.477,0.922,1.716,1.183,0.491,0.864,0.825,��,10.3,�L
2018/04/14,19:00,0.886,1.477,0.921,1.713,1.181,0.492,0.863,0.826,��,10.6,�L
2018/04/14,19:10,0.885,1.477,0.919,1.714,1.178,0.491,0.861,0.825,��,11.6,�L
2018/04/14,19:20,0.884,1.475,0.919,1.715,1.177,0.493,0.861,0.824,��,10.0,�L
2018/04/14,19:30,0.884,1.468,0.919,1.711,1.173,0.494,0.861,0.822,��,10.6,�L
2018/04/14,19:40,0.881,1.463,0.916,1.708,1.171,0.492,0.858,0.821,��,10.6,�L
2018/04/14,19:50,0.880,1.459,0.913,1.705,1.165,0.493,0.858,0.820,��,11.0,�L
2018/04/14,20:00,0.879,1.455,0.913,1.701,1.164,0.492,0.857,0.820,��,10.0,�L
2018/04/14,20:10,0.879,1.455,0.915,1.701,1.164,0.491,0.858,0.821,��,9.9,�L
2018/04/14,20:20,0.879,1.455,0.912,1.696,1.159,0.491,0.858,0.820,��,10.2,�L
2018/04/14,20:30,0.876,1.451,0.912,1.697,1.159,0.491,0.857,0.818,��,12.8,�L
2018/04/14,20:40,0.875,1.451,0.913,1.698,1.156,0.490,0.857,0.818,��,12.8,�L
2018/04/14,20:50,0.873,1.449,0.911,1.694,1.155,0.492,0.855,0.817,��,12.1,�L
2018/04/14,21:00,0.871,1.442,0.908,1.696,1.154,0.491,0.855,0.816,��,11.6,�L
2018/04/14,21:10,0.871,1.445,0.907,1.691,1.150,0.489,0.854,0.814,��,9.9,�L
2018/04/14,21:20,0.869,1.443,0.907,1.686,1.149,0.490,0.853,0.816,��,11.3,�L
2018/04/14,21:30,0.867,1.436,0.904,1.687,1.147,0.491,0.854,0.817,��,12.2,�L
2018/04/14,21:40,0.868,1.436,0.904,1.685,1.145,0.490,0.854,0.817,��,13.3,�L
2018/04/14,21:50,0.869,1.433,0.904,1.679,1.143,0.489,0.852,0.815,��,11.0,�L
2018/04/14,22:00,0.866,1.431,0.904,1.681,1.143,0.489,0.852,0.814,��,13.0,�L
2018/04/14,22:10,0.867,1.431,0.905,1.682,1.139,0.490,0.853,0.814,��,13.9,�L
2018/04/14,22:20,0.865,1.430,0.904,1.679,1.140,0.488,0.852,0.814,��,14.6,�L
2018/04/14,22:30,0.865,1.432,0.901,1.677,1.140,0.489,0.852,0.814,��,13.0,�L
2018/04/14,22:40,0.864,1.430,0.900,1.674,1.138,0.488,0.852,0.815,��,11.3,�L
2018/04/14,22:50,0.861,1.428,0.901,1.674,1.140,0.486,0.851,0.813,��,11.6,�L
2018/04/14,23:00,0.864,1.430,0.901,1.673,1.140,0.488,0.853,0.812,��,11.4,�L
2018/04/14,23:10,0.859,1.427,0.899,1.670,1.136,0.487,0.852,0.813,��,11.7,�L
2018/04/14,23:20,0.862,1.425,0.900,1.672,1.136,0.486,0.851,0.814,��,10.5,�L
2018/04/14,23:30,0.862,1.425,0.899,1.671,1.133,0.487,0.852,0.812,��,12.4,�L
2018/04/14,23:40,0.858,1.423,0.900,1.670,1.132,0.486,0.852,0.812,��,10.9,�L
2018/04/14,23:50,0.861,1.422,0.897,1.670,1.131,0.486,0.850,0.813,��,10.8,�L
